Change the Weather History Date:

Friday, November 2, 2012

  Actual Average Record
Temperature  
Mean Temperature 63 °F -  
Max Temperature 66 °F 75 °F 87 °F (2013)
Min Temperature 60 °F 59 °F 50 °F (1998)
Degree Days  
Heating Degree Days 2    
Growing Degree Days 13 (Base 50)    
Moisture  
Dew Point 45 °F    
Average Humidity 49    
Maximum Humidity 72    
Minimum Humidity 25    
Precipitation  
Precipitation 0.03 in 0.13 in - ()
Sea Level Pressure  
Sea Level Pressure 29.95 in    
Wind  
Wind Speed 17 mph ()    
Max Wind Speed 25 mph    
Max Gust Speed 33 mph    
Visibility 7.9 miles    
Events Rain    
Averages and records for this station are not official NWS values.
T = Trace of Precipitation, MM = Missing Value Source: Averaged Metar Reports

Daily Weather History Graph

Daily Weather History Graph

Search for Another Location

Airport or City:

Trip Planner

Search our weather history database for the weather conditions in past years. The results will help you decide how hot, cold, wet, or windy it might be!

Date:

Astronomy

Nov. 02, 2012 Rise Set
Actual Time 5:53 AM AEDT 7:24 PM AEDT
Civil Twilight 5:27 AM AEDT 7:51 PM AEDT
Nautical Twilight 4:55 AM AEDT 8:22 PM AEDT
Astronomical Twilight 4:22 AM AEDT 8:56 PM AEDT
Moon 10:23 PM AEDT (11/2) 7:56 AM AEDT (11/2)
Length of Visible Light 14h 23m
Length of Day
13h 30m
Waning Gibbous, 91% of the Moon is Illuminated
Nov 2
Waning Gibbous
Nov 7
Last Quarter
Nov 14
New
Nov 21
First Quarter
Nov 29
Full

Hourly Weather History & Observations

Time (AEDT) Temp. Dew Point Humidity Pressure Visibility Wind Dir Wind Speed Gust Speed Precip Events Conditions
12:00 AM 66 °F 39 °F 25% 29.78 in 25 mi WSW 18.4 mph - -   Partly Cloudy
12:00 AM 66.2 °F 39.2 °F 37% 29.77 in - WSW 18.4 mph - N/A   Clear
12:30 AM 66.2 °F 39.2 °F 37% 29.77 in - WSW 17.3 mph - N/A   Clear
1:00 AM 64.4 °F 41.0 °F 42% 29.77 in - WSW 15.0 mph - N/A   Clear
2:00 AM 64 °F 44 °F 36% 29.81 in - SW 16.1 mph - -  
2:00 AM 64.4 °F 42.8 °F 45% 29.80 in - SW 16.1 mph - N/A   Clear
2:30 AM 64.4 °F 41.0 °F 42% 29.80 in - SSW 12.7 mph - N/A   Clear
3:00 AM 63 °F 41 °F 33% 29.82 in 25 mi SW 16.1 mph - -   Partly Cloudy
3:00 AM 62.6 °F 41.0 °F 45% 29.80 in - SW 16.1 mph - N/A   Clear
3:30 AM 62.6 °F 41.0 °F 45% 29.80 in - SW 16.1 mph - N/A   Clear
4:00 AM 62.6 °F 41.0 °F 45% 29.80 in 6.2 mi SW 19.6 mph - N/A   Partly Cloudy
4:30 AM 62.6 °F 44.6 °F 52% 29.83 in 6.2 mi SSW 12.7 mph - N/A   Scattered Clouds
5:00 AM 61 °F 42 °F 37% 29.86 in - SW 13.8 mph - -  
5:00 AM 60.8 °F 41.0 °F 48% 29.86 in 6.2 mi SW 13.8 mph - N/A   Partly Cloudy
5:18 AM 62.6 °F 50.0 °F 63% 29.86 in 6.2 mi South 21.9 mph 33.4 mph N/A   Partly Cloudy
5:30 AM 60.8 °F 51.8 °F 72% 29.86 in 6.2 mi South 24.2 mph - N/A   Scattered Clouds
6:00 AM 62 °F 47 °F 48% 29.88 in 16 mi South 25.3 mph - - Rain Light Rain Showers
6:00 AM 62.6 °F 46.4 °F 55% 29.86 in 6.2 mi South 25.3 mph - N/A   Mostly Cloudy
6:30 AM 62.6 °F 42.8 °F 48% 29.89 in 6.2 mi South 21.9 mph - N/A   Scattered Clouds
7:00 AM 62.6 °F 44.6 °F 52% 29.92 in 6.2 mi South 20.7 mph - N/A   Partly Cloudy
7:30 AM 62.6 °F 46.4 °F 55% 29.92 in 6.2 mi South 21.9 mph - N/A   Partly Cloudy
8:00 AM 62 °F 44 °F 41% 29.96 in - South 25.3 mph - -  
8:00 AM 60.8 °F 44.6 °F 55% 29.95 in 6.2 mi South 25.3 mph - N/A   Partly Cloudy
8:30 AM 62.6 °F 44.6 °F 52% 29.95 in 6.2 mi South 24.2 mph - N/A   Partly Cloudy
9:00 AM 62 °F 45 °F 42% 29.99 in 19 mi South 24.2 mph - -   Partly Cloudy
9:00 AM 62.6 °F 44.6 °F 52% 29.98 in 6.2 mi South 24.2 mph - N/A   Partly Cloudy
9:30 AM 62.6 °F 44.6 °F 52% 29.98 in 6.2 mi South 25.3 mph - N/A   Partly Cloudy
10:30 AM 62.6 °F 44.6 °F 52% 29.98 in 6.2 mi South 19.6 mph - N/A   Partly Cloudy
11:00 AM 62 °F 43 °F 38% 30.00 in - South 19.6 mph - -  
11:00 AM 62.6 °F 42.8 °F 48% 29.98 in 6.2 mi South 19.6 mph - N/A   Partly Cloudy
11:30 AM 62.6 °F 42.8 °F 48% 29.98 in 6.2 mi South 18.4 mph - N/A   Partly Cloudy
12:00 PM 63 °F 44 °F 38% 29.99 in 19 mi South 19.6 mph - -   Partly Cloudy
12:00 PM 62.6 °F 44.6 °F 52% 29.98 in 6.2 mi South 19.6 mph - N/A   Partly Cloudy
12:30 PM 64.4 °F 46.4 °F 52% 29.98 in 6.2 mi South 19.6 mph - N/A   Partly Cloudy
1:00 PM 64.4 °F 44.6 °F 49% 29.98 in 6.2 mi South 19.6 mph - N/A   Partly Cloudy
1:30 PM 64.4 °F 44.6 °F 49% 29.98 in 6.2 mi South 19.6 mph - N/A   Partly Cloudy
2:30 PM 64.4 °F 46.4 °F 52% 29.98 in 6.2 mi South 19.6 mph - N/A   Partly Cloudy
3:00 PM 64 °F 47 °F 42% 30.00 in 19 mi South 18.4 mph - -   Partly Cloudy
3:00 PM 64.4 °F 46.4 °F 52% 29.98 in 6.2 mi South 18.4 mph - N/A   Partly Cloudy
3:03 PM 62.6 °F 46.4 °F 55% 29.98 in 6.2 mi South 18.4 mph 29.9 mph N/A   Partly Cloudy
3:30 PM 64.4 °F 46.4 °F 52% 29.98 in 6.2 mi South 19.6 mph - N/A   Partly Cloudy
4:00 PM 64.4 °F 48.2 °F 56% 29.98 in 6.2 mi South 18.4 mph - N/A   Partly Cloudy
5:00 PM 65 °F 44 °F 35% 30.00 in - SSE 18.4 mph - -  
5:00 PM 66.2 °F 44.6 °F 46% 29.98 in 6.2 mi SSE 18.4 mph - N/A   Partly Cloudy
6:00 PM 64 °F 46 °F 41% 30.01 in 19 mi SE 16.1 mph - -   Partly Cloudy
6:00 PM 64.4 °F 46.4 °F 52% 30.01 in 6.2 mi SE 16.1 mph - N/A   Partly Cloudy
6:30 PM 64.4 °F 44.6 °F 49% 30.01 in 6.2 mi SE 15.0 mph - N/A   Partly Cloudy
7:00 PM 62.6 °F 46.4 °F 55% 30.04 in 6.2 mi SE 13.8 mph - N/A   Partly Cloudy
7:30 PM 62.6 °F 48.2 °F 59% 30.04 in 6.2 mi SSE 13.8 mph - N/A   Mostly Cloudy
8:00 PM 63 °F 49 °F 50% 30.07 in - SE 13.8 mph - -  
8:00 PM 62.6 °F 48.2 °F 59% 30.06 in 6.2 mi SE 13.8 mph - N/A   Mostly Cloudy
8:30 PM 62.6 °F 48.2 °F 59% 30.06 in 6.2 mi SE 15.0 mph - N/A   Mostly Cloudy
9:00 PM 63 °F 48 °F 47% 30.09 in 19 mi SE 13.8 mph - -   Partly Cloudy
9:00 PM 62.6 °F 48.2 °F 59% 30.06 in 6.2 mi SE 13.8 mph - N/A   Mostly Cloudy
9:30 PM 62.6 °F 48.2 °F 59% 30.09 in 6.2 mi SE 15.0 mph - N/A   Mostly Cloudy
10:00 PM 62.6 °F 50.0 °F 63% 30.09 in 6.2 mi SE 15.0 mph - N/A   Mostly Cloudy
10:30 PM 62.6 °F 48.2 °F 59% 30.09 in 6.2 mi SE 13.8 mph - N/A   Mostly Cloudy
11:00 PM 62 °F 48 °F 50% 30.10 in - SE 11.5 mph - -  
11:00 PM 62.6 °F 48.2 °F 59% 30.09 in 6.2 mi SE 11.5 mph - N/A   Mostly Cloudy
11:30 PM 62.6 °F 50.0 °F 63% 30.09 in 6.2 mi SE 12.7 mph - N/A   Mostly Cloudy